Simultaneous Nadir Overpasses (SNOs) Predictions

Prediction of SNOs between LANDSAT-8 and NOAA-19 Satellite Orbit:

Table of predicted SNOs for the next 14.0 days since TLE Epoch: 1/8/2016
Index Date (LANDSAT-8) Time (LANDSAT-8) Lat,Lon (LANDSAT-8) SZA (LANDSAT-8 ) Date (NOAA-19) Time (NOAA-19) Lat,Lon (NOAA-19) SZA (NOAA-19 ) Distance(km) Time Diff (sec)
1 01/09/2016 22:05:44 -74.09, 31.89 83.92 01/09/2016 22:05:04 -74.08, 31.81 83.93 2.80 40
2 01/09/2016 22:55:11 74.01,-160.64 96.00 01/09/2016 22:56:00 74.00,-160.70 95.99 3.00 49
3 01/12/2016 03:39:29 74.03, 128.33 95.69 01/12/2016 03:39:11 74.03, 128.45 95.69 3.55 18
4 01/12/2016 04:28:59 -73.91, -64.31 84.44 01/12/2016 04:30:12 -73.89, -63.94 84.47 11.85 73
5 01/14/2016 08:23:40 74.41, 58.13 95.70 01/14/2016 08:22:30 74.46, 56.56 95.75 47.18 70
6 01/14/2016 09:13:15 -74.03,-135.12 84.69 01/14/2016 09:13:25 -74.04,-135.09 84.68 1.53 10
7 01/16/2016 13:57:32 -74.09, 153.95 85.03 01/16/2016 13:56:36 -74.11, 153.98 85.01 2.36 56
8 01/16/2016 14:46:59 74.01, -38.60 94.88 01/16/2016 14:47:33 74.02, -38.51 94.89 2.97 34
9 01/18/2016 19:31:15 74.11,-109.44 94.56 01/18/2016 19:30:45 74.12,-109.52 94.56 2.46 30
10 01/18/2016 20:20:45 -74.00, 57.94 85.57 01/18/2016 20:21:46 -74.03, 57.94 85.54 3.41 61
11 01/21/2016 01:05:01 -74.10, -12.91 85.93 01/21/2016 01:04:57 -74.11, -13.02 85.92 3.50 4
